This demonstration page uses our WeatherBlox Daily Observations layout. Learn more.

Left ArrowRight Arrow

Hourly Observations for November 5, 2018

Temp ( °F °C ) Dew Point ( °F °C ) Humidity (%) Winds ( mph kmh ) Pressure ( in mb ) Visibility ( mi km ) Precip ( " mm )
12:53 am 00:53 Clear 50 10 48 8.9 93 93 Calm 29.77 1008 10 16 0.00 0.00
1:53 am 01:53 Clear 49 9.4 47 8.3 93 93 NE 3 6 29.76 1008 10 16 0.00 0.00
2:53 am 02:53 Clear 49 9.4 48 8.9 97 97 SE 7 11 29.75 1007 10 16 0.00 0.00
3:53 am 03:53 Clear 48 8.9 47 8.3 96 96 SSE 6 9 29.73 1007 10 16 0.00 0.00
4:53 am 04:53 Clear 47 8.3 46 7.8 97 97 SE 5 7 29.73 1007 10 16 0.00 0.00
5:53 am 05:53 Clear 47 8.3 46 7.8 97 97 SSE 7 11 29.73 1007 10 16 0.00 0.00
6:53 am 06:53 Clear 48 8.9 46 7.8 93 93 SSE 7 11 29.74 1007 10 16 0.00 0.00
7:53 am 07:53 Sunny 47 8.3 46 7.8 97 97 ESE 3 6 29.77 1008 10 16 0.00 0.00
8:53 am 08:53 Sunny 55 12.8 50 10 83 83 Calm 29.78 1008 10 16 0.00 0.00
9:53 am 09:53 Sunny 66 18.9 47 8.3 50 50 W 9 15 29.77 1008 10 16 0.00 0.00
10:53 am 10:53 Sunny 73 22.8 42 5.6 33 33 undefined N/A 29.76 1008 10 16 0.00 0.00
11:53 am 11:53 Sunny 74 23.3 39 3.9 28 28 W 16 26 29.75 1008 10 16 0.00 0.00
12:53 pm 12:53 Sunny 77 25 37 2.8 24 24 WNW 16 26 29.74 1007 10 16 0.00 0.00
1:53 pm 13:53 Sunny 78 25.6 37 2.8 23 23 WNW 13 20 29.71 1006 10 16 0.00 0.00
2:53 pm 14:53 Sunny 80 26.7 37 2.8 21 21 WNW 13 20 29.70 1006 10 16 0.00 0.00
3:53 pm 15:53 Sunny 80 26.7 36 2.2 20 20 W 12 19 29.70 1006 10 16 0.00 0.00
4:53 pm 16:53 Sunny 79 26.1 36 2.2 21 21 W 10 17 29.70 1006 10 16 0.00 0.00
5:53 pm 17:53 Sunny 72 22.2 42 5.6 34 34 S 3 6 29.71 1006 10 16 0.00 0.00
6:53 pm 18:53 Clear 65 18.3 43 6.1 45 45 SW 6 9 29.74 1007 10 16 0.00 0.00
7:53 pm 19:53 Clear 61 16.1 44 6.7 54 54 S 8 13 29.76 1008 10 16 0.00 0.00
8:53 pm 20:53 Clear 58 14.4 44 6.7 60 60 SE 9 15 29.77 1008 10 16 0.00 0.00
9:53 pm 21:53 Clear 57 13.9 43 6.1 60 60 SE 7 11 29.76 1008 10 16 0.00 0.00
10:53 pm 22:53 Clear 56 13.3 43 6.1 62 62 SE 6 9 29.76 1008 10 16 0.00 0.00
11:53 pm 23:53 Clear 54 12.2 44 6.7 69 69 SE 5 7 29.76 1008 10 16 0.00 0.00

Powered by AerisWeather